Weather History for Peru, IL

Change the Weather History Date:

Friday, March 28, 2014

  Actual Average Record
Temperature  
Mean Temperature 43 °F -  
Max Temperature 45 °F 54 °F 78 °F (1991)
Min Temperature 37 °F 33 °F 10 °F (1970)
Degree Days  
Heating Degree Days 22    
Moisture  
Dew Point 35 °F    
Average Humidity 82    
Maximum Humidity 93    
Minimum Humidity 73    
Precipitation  
Precipitation 0.00 in - - ()
Sea Level Pressure  
Sea Level Pressure 29.93 in    
Wind  
Wind Speed 17 mph (NW)    
Max Wind Speed 38 mph    
Max Gust Speed 47 mph    
Visibility 9 miles    
Events      
Averages and records for this station are not official NWS values.
T = Trace of Precipitation, MM = Missing Value Source: NWS Daily Summary

Daily Weather History Graph

Daily Weather History Graph

Search for Another Location

Airport:

Trip Planner

Search our weather history database for the weather conditions in past years. The results will help you decide how hot, cold, wet, or windy it might be!

Date:

Astronomy

Mar. 28, 2014 Rise Set
Actual Time 6:46 AM CDT 7:17 PM CDT
Civil Twilight 6:18 AM CDT 7:45 PM CDT
Nautical Twilight 5:46 AM CDT 8:18 PM CDT
Astronomical Twilight 5:12 AM CDT 8:51 PM CDT
Moon 5:18 AM CDT (3/28) 5:12 PM CDT (3/28)
Length of Visible Light 13h 26m
Length of Day
12h 31m
Waning Crescent, 6% of the Moon is Illuminated
Mar 28
Waning Crescent
Mar 30
New
Apr 7
First Quarter
Apr 15
Full
Apr 22
Last Quarter

Hourly Weather History & Observations

Time (CDT) Temp. Windchill Dew Point Humidity Pressure Visibility Wind Dir Wind Speed Gust Speed Precip Events Conditions
12:10 AM 48.7 °F - 42.1 °F 78% 29.46 in 10.0 mi WSW 31.1 mph 43.7 mph N/A   Mostly Cloudy
12:30 AM 47.3 °F - 41.9 °F 82% 29.48 in 10.0 mi WSW 20.7 mph 33.4 mph N/A   Mostly Cloudy
12:50 AM 46.2 °F 37.9 °F 41.0 °F 82% 29.49 in 10.0 mi SW 24.2 mph 34.5 mph N/A   Overcast
1:10 AM 45.0 °F 35.8 °F 40.1 °F 83% 29.49 in 10.0 mi WSW 26.5 mph 33.4 mph N/A   Overcast
1:30 AM 44.6 °F 35.1 °F 40.1 °F 84% 29.50 in 10.0 mi WSW 27.6 mph 35.7 mph N/A   Overcast
1:50 AM 44.6 °F 33.6 °F 39.9 °F 84% 29.50 in 10.0 mi WSW 38.0 mph 47.2 mph N/A   Overcast
2:10 AM 43.7 °F 34.1 °F 39.2 °F 84% 29.52 in 10.0 mi WSW 26.5 mph 42.6 mph N/A   Overcast
2:30 AM 42.8 °F 32.5 °F 38.7 °F 85% 29.53 in 7.0 mi WSW 28.8 mph 40.3 mph N/A   Overcast
2:50 AM 42.3 °F 32.4 °F 38.8 °F 88% 29.54 in 10.0 mi WSW 25.3 mph 34.5 mph N/A   Overcast
3:10 AM 42.1 °F 32.1 °F 38.7 °F 88% 29.56 in 10.0 mi WSW 25.3 mph 33.4 mph N/A   Overcast
3:30 AM 42.1 °F 31.9 °F 39.2 °F 90% 29.57 in 5.0 mi West 26.5 mph 34.5 mph N/A   Overcast
3:50 AM 41.4 °F 31.4 °F 38.8 °F 91% 29.59 in 4.0 mi West 24.2 mph 33.4 mph N/A   Overcast
4:10 AM 41.0 °F 31.6 °F 38.7 °F 91% 29.61 in 3.0 mi West 20.7 mph 31.1 mph N/A   Overcast
4:30 AM 41.0 °F 32.2 °F 39.2 °F 93% 29.63 in 2.5 mi West 18.4 mph 29.9 mph N/A   Overcast
4:50 AM 41.0 °F 32.2 °F 39.2 °F 93% 29.66 in 3.0 mi WNW 18.4 mph 29.9 mph N/A   Overcast
5:10 AM 40.6 °F 31.7 °F 38.8 °F 93% 29.68 in 4.0 mi WNW 18.4 mph 28.8 mph N/A   Overcast
5:30 AM 39.7 °F 29.0 °F 37.8 °F 93% 29.71 in 7.0 mi WNW 25.3 mph 29.9 mph N/A   Overcast
5:50 AM 39.6 °F 29.2 °F 37.4 °F 92% 29.73 in 5.0 mi NW 23.0 mph 29.9 mph N/A   Overcast
6:10 AM 39.6 °F 30.0 °F 37.4 °F 92% 29.76 in 10.0 mi NW 19.6 mph 23.0 mph N/A   Overcast
6:30 AM 39.6 °F 30.0 °F 37.2 °F 91% 29.79 in 10.0 mi NW 19.6 mph 25.3 mph N/A   Overcast
6:50 AM 39.6 °F 30.3 °F 36.7 °F 89% 29.81 in 10.0 mi NW 18.4 mph 26.5 mph N/A   Overcast
7:10 AM 39.6 °F 30.6 °F 36.5 °F 89% 29.83 in 10.0 mi NW 17.3 mph 25.3 mph N/A   Overcast
7:30 AM 39.6 °F 30.6 °F 36.3 °F 88% 29.85 in 10.0 mi NW 17.3 mph 20.7 mph N/A   Overcast
7:50 AM 39.6 °F 31.3 °F 36.0 °F 87% 29.88 in 10.0 mi NW 15.0 mph - N/A   Overcast
8:10 AM 39.6 °F 30.0 °F 35.6 °F 86% 29.89 in 10.0 mi NW 19.6 mph 23.0 mph N/A   Overcast
8:30 AM 39.6 °F 32.1 °F 35.1 °F 84% 29.91 in 10.0 mi NW 12.7 mph - N/A   Overcast
8:50 AM 39.6 °F 31.3 °F 35.1 °F 84% 29.92 in 10.0 mi NNW 15.0 mph - N/A   Overcast
9:10 AM 39.6 °F 31.3 °F 34.7 °F 83% 29.94 in 10.0 mi NW 15.0 mph - N/A   Overcast
9:30 AM 39.6 °F 31.7 °F 34.3 °F 82% 29.94 in 10.0 mi NNW 13.8 mph - N/A   Overcast
9:50 AM 39.6 °F 31.7 °F 34.0 °F 80% 29.97 in 10.0 mi NNW 13.8 mph 19.6 mph N/A   Overcast
10:10 AM 39.7 °F 32.3 °F 33.6 °F 79% 29.98 in 10.0 mi NNW 12.7 mph - N/A   Overcast
10:30 AM 39.7 °F 32.3 °F 34.2 °F 80% 29.98 in 10.0 mi NNW 12.7 mph - N/A   Overcast
10:50 AM 39.6 °F 31.7 °F 33.1 °F 78% 29.98 in 10.0 mi North 13.8 mph - N/A   Overcast
11:10 AM 39.6 °F 33.0 °F 32.9 °F 77% 30.00 in 10.0 mi North 10.4 mph - N/A   Overcast
11:30 AM 39.7 °F 34.3 °F 32.7 °F 76% 30.02 in 10.0 mi NNW 8.1 mph - N/A   Overcast
11:50 AM 39.9 °F 34.5 °F 33.1 °F 77% 30.02 in 10.0 mi North 8.1 mph - N/A   Overcast
12:10 PM 39.6 °F - 32.7 °F 76% 30.03 in 10.0 mi Calm Calm - N/A   Overcast
12:30 PM 39.6 °F - 32.4 °F 75% 30.06 in 10.0 mi Calm Calm - N/A   Overcast
12:50 PM 39.7 °F 35.6 °F 32.7 °F 76% 30.07 in 10.0 mi West 5.8 mph - N/A   Overcast
1:10 PM 39.6 °F - 32.4 °F 75% 30.08 in 10.0 mi Calm Calm - N/A   Overcast
1:30 PM 40.1 °F 35.3 °F 32.9 °F 75% 30.08 in 10.0 mi West 6.9 mph - N/A   Overcast
1:50 PM 40.3 °F - 32.7 °F 74% 30.09 in 10.0 mi Calm Calm - N/A   Overcast
2:10 PM 41.0 °F - 33.3 °F 74% 30.09 in 10.0 mi Calm Calm - N/A   Overcast
2:30 PM 41.4 °F - 33.8 °F 74% 30.08 in 10.0 mi Calm Calm - N/A   Overcast
2:50 PM 41.2 °F - 33.3 °F 73% 30.08 in 10.0 mi Calm Calm - N/A   Overcast
3:10 PM 41.0 °F - 33.3 °F 74% 30.09 in 10.0 mi Calm Calm - N/A   Overcast
3:30 PM 41.0 °F - 33.3 °F 74% 30.10 in 10.0 mi Calm Calm - N/A   Overcast
3:50 PM 40.6 °F - 33.3 °F 75% 30.10 in 10.0 mi Calm Calm - N/A   Overcast
4:10 PM 41.0 °F - 33.4 °F 74% 30.11 in 10.0 mi Calm Calm - N/A   Overcast
4:30 PM 41.0 °F - 33.4 °F 74% 30.10 in 10.0 mi Calm Calm - N/A   Overcast
4:50 PM 41.0 °F - 34.0 °F 76% 30.10 in 10.0 mi Calm Calm - N/A   Overcast
5:10 PM 41.0 °F - 33.8 °F 76% 30.11 in 10.0 mi Calm Calm - N/A   Overcast
5:30 PM 41.0 °F 37.1 °F 33.8 °F 76% 30.11 in 10.0 mi North 5.8 mph - N/A   Overcast
5:50 PM 40.5 °F - 33.8 °F 77% 30.13 in 10.0 mi Calm Calm - N/A   Overcast
6:10 PM 40.5 °F - 33.6 °F 77% 30.14 in 10.0 mi Calm Calm - N/A   Overcast
6:30 PM 40.5 °F - 34.0 °F 78% 30.14 in 10.0 mi Calm Calm - N/A   Overcast
6:50 PM 40.1 °F 34.7 °F 33.8 °F 78% 30.14 in 10.0 mi NNE 8.1 mph - N/A   Overcast
7:10 PM 39.7 °F 35.6 °F 34.0 °F 80% 30.13 in 10.0 mi NNE 5.8 mph - N/A   Overcast
7:30 PM 39.6 °F 34.7 °F 34.2 °F 81% 30.13 in 10.0 mi NNE 6.9 mph - N/A   Overcast
7:50 PM 39.6 °F 34.7 °F 33.8 °F 80% 30.13 in 10.0 mi NNE 6.9 mph - N/A   Overcast
8:10 PM 39.6 °F 35.4 °F 34.3 °F 82% 30.13 in 10.0 mi North 5.8 mph - N/A   Overcast
8:30 PM 39.6 °F 33.5 °F 34.7 °F 83% 30.13 in 10.0 mi North 9.2 mph - N/A   Overcast
8:50 PM 39.6 °F 34.7 °F 34.9 °F 83% 30.12 in 10.0 mi NNE 6.9 mph - N/A   Overcast
9:10 PM 39.4 °F 35.2 °F 34.5 °F 83% 30.13 in 10.0 mi NNE 5.8 mph - N/A   Overcast
9:30 PM 38.3 °F 33.9 °F 33.8 °F 84% 30.13 in 10.0 mi NE 5.8 mph - N/A   Overcast
9:50 PM 38.3 °F 33.9 °F 33.4 °F 83% 30.14 in 10.0 mi NE 5.8 mph - N/A   Overcast
10:10 PM 38.3 °F - 33.3 °F 82% 30.16 in 10.0 mi Calm Calm - N/A   Overcast
10:30 PM 38.3 °F - 33.3 °F 82% 30.16 in 10.0 mi Calm Calm - N/A   Overcast
10:50 PM 38.3 °F - 33.1 °F 81% 30.15 in 10.0 mi Calm Calm - N/A   Overcast
11:10 PM 38.3 °F - 33.3 °F 82% 30.16 in 10.0 mi Calm Calm - N/A   Overcast
11:30 PM 38.3 °F 34.8 °F 33.1 °F 81% 30.17 in 10.0 mi East 4.6 mph - N/A   Overcast
11:50 PM 37.9 °F - 33.3 °F 83% 30.18 in 7.0 mi Calm Calm - N/A   Overcast